Preview of NWS' New Version of Forecast
This preview is not operational and should not be used for support decisions.

Regional Weather Roundup (RWR)

Issued by National Weather Service (NWS)

                            
000
ASUS46 KSEW 180110
RWRWA 

WASHINGTON REGIONAL WEATHER ROUNDUP
NATIONAL WEATHER SERVICE SEATTLE WA
600 PM PDT MON JUN 17 2019

NOTE:"FAIR" INDICATES FEW OR NO CLOUDS BELOW 12,000 FEET WITH NO 
SIGNIFICANT WEATHER AND/OR OBSTRUCTIONS TO VISIBILITY.

WAZ507-509-555>559-180200-
SEATTLE, TACOMA, EVERETT, AND VICINITY
  
CITY           SKY/WX    TMP DP  RH WIND       PRES   REMARKS
EVERETT        PTSUNNY   68  54  60 N8        30.15S                  
BOEING FIELD   PTSUNNY   75  53  46 SW5       30.11F                  
RENTON         PTSUNNY   75  53  46 VRB5      30.11F                  
SEATAC AIRPORT PTSUNNY   74  52  46 SE3       30.13F                  
JBLM-MCCHORD   PTSUNNY   76  63  62 N3        30.12F                  
PUYALLUP       FAIR      75  57  53 CALM      30.13F                  
BREMERTON      CLOUDY    73  58  59 SW7       30.12F                  
JBLM-FT LEWIS  PTSUNNY   76  64  65 W7        30.11F                  
TACOMA NARROWS PTSUNNY   73  57  57 VRB5      30.12F                  
$$
 
WAZ001-503-506-510-514-515-180200-
NORTH INTERIOR
  
CITY           SKY/WX    TMP DP  RH WIND       PRES   REMARKS
BELLINGHAM     PTSUNNY   65  55  70 S13G20    30.09S                  
FRIDAY HARBOR  PTSUNNY   71  53  52 SW10      30.09F                  
EASTSOUND      PTSUNNY   66  55  68 S13G18    30.07S                  
PORT ANGELES   MOSUNNY   62  55  77 NW13      30.14F                  
EDIZ HOOK      FAIR      60  54  79 W24G32    30.13F                  
PORT TOWNSEND  FAIR      68  57  68 NW6       30.12F                  
NAS WHIDBEY    PTSUNNY   64  53  67 SW18G24   30.15F                  
ARLINGTON      PTSUNNY   70  56  61 NW13G21   30.14S                  
BURLINGTON     SUNNY     72  57  60 S9G18     30.12S                  
$$
 
WAZ020-022-039-040-504-511-512-180200-
SOUTHWEST INTERIOR
  
CITY           SKY/WX    TMP DP  RH WIND       PRES   REMARKS
SHELTON        MOSUNNY   74  56  53 SW18G26   30.10S                  
OLYMPIA        PTSUNNY   75  54  47 SW10      30.12F                  
CHEHALIS       FAIR      75  57  53 NW6       30.15R                  
KELSO          MOSUNNY   73  58  59 W12G21    30.14S                  
VANCOUVER      MOSUNNY   78  54  43 NW12G21   30.09S                  
SCAPPOOSE, OR  MOSUNNY   78  56  46 N10       30.09S                  
PORTLAND, OR   PTSUNNY   80  55  42 NW13      30.09F                  
$$
 
WAZ021-516-517-180200-
WASHINGTON COAST
  
CITY           SKY/WX    TMP DP  RH WIND       PRES   REMARKS
FORKS          CLOUDY    60  55  83 VRB7      30.19F                  
HOQUIAM        CLOUDY    60  58  92 W13       30.20S FOG              
ASTORIA, OR    CLOUDY    61  55  81 NW10      30.21S                  
$$
 
WAZ019-023-024-040-567>569-180200-
CASCADE MOUNTAINS AND COLUMBIA GORGE
  
CITY           SKY/WX    TMP DP  RH WIND       PRES   REMARKS
STAMPEDE PASS  PTSUNNY   62  48  60 W8        30.18R                  
TROUTDALE, OR  SUNNY     80  55  42 NW8       30.09S                  
HOOD RIVER, OR PTCLDY    81  52  36 W7        30.03S                  
THE DALLES, OR MOSUNNY   85  53  33 W22G35    29.94S                  
$$

WAZ026-027-041>044-520-521-180200-
EAST SLOPES
  
CITY           SKY/WX    TMP DP  RH WIND       PRES   REMARKS
OMAK           PTSUNNY   91  44  19 S12       29.85F                  
WENATCHEE      MOSUNNY   88  40  18 W16       29.89S                  
ELLENSBURG     PTSUNNY   79  48  33 NW28G35   29.97R                  
YAKIMA         PTSUNNY   87  42  20 NW18G24   29.92R                  
SUNNYSIDE ARPT PTCLDY    90  49  24 SW5       29.88                   
YAKIMA TC      FAIR      86  36  16 NW20G26   29.92R                  
$$

WAZ028-034-035-180200-
COLUMBIA BASIN
  
CITY           SKY/WX    TMP DP  RH WIND       PRES   REMARKS
EPHRATA        MOSUNNY   90  43  19 SW14      29.88F                  
MOSES LAKE     SUNNY     91  45  20 SW13      29.89F                  
PASCO          SUNNY     93  47  20 SE9       29.87F                  
RICHLAND ARPT  CLEAR     95  40  15 SW6       29.86S HX  90           
HERMISTON, OR  MOSUNNY   92  46  20 VRB7      29.88F                  
$$

WAZ036>038-180200-
NORTHEAST WASHINGTON
  
CITY           SKY/WX    TMP DP  RH WIND       PRES   REMARKS
SPOKANE GEIGER FAIR      83  48  29 NW7       29.94F                  
SPOKANE FELTS  SUNNY     85  48  27 W8        29.92F                  
FAIRCHILD AFB  MOSUNNY   83  48  29 W6        29.95F                  
COEURDALENE,ID MOSUNNY   82  55  39 SW7       29.95S                  
DEER PARK      MOSUNNY   83  49  30 SW9       29.94F                  
$$

WAZ029>033-180200-
SOUTHEAST WASHINGTON
  
CITY           SKY/WX    TMP DP  RH WIND       PRES   REMARKS
PULLMAN        FAIR      80  51  36 W9        30.00R                  
LEWISTON, ID   SUNNY     88  50  27 W7        29.91S                  
WALLA WALLA    SUNNY     86  47  25 VRB3      29.93S                  
PENDLETON, OR  SUNNY     86  45  23 NW8       29.94S                  
$$